Location: Beddau
(51.5575°N, 3.3561°W)
Time: 02:53:19
(UTC+00:00)

ATLAS CENTAUR R/B - Pass Details

Date: 03 March 2021
Orbit: 475 x 670 km, 64.7° (Epoch: 30 March)

Event Time Altitude Azimuth Distance (km) Brightness Sun altitude
Rises 21:36:36 0° 266° (W) 2,526 5.3 -33.1°
Reaches altitude 10° 21:39:08 10° 284° (WNW) 1,657 4.5 -33.4°
Enters shadow 21:39:29 12° 288° (WNW) 1,556 4.3 -33.5°
